Home > Weather > Campbelltown > Past weeks

Flag for Australia Past Weather in Campbelltown, New South Wales, Australia — Yesterday and Last 2 Weeks

Now
36 °F

Chilly.


Feels Like: 34 °F
Forecast: 35 / 66 °F
Wind: 3 mph from North

Location: Camden Airport

Current Time: Aug 28, 2016 at 4:56:32 AM

Latest Report: Aug 28, 2016 at 3:00 AM


Visibility: N/A

Pressure: 30.16 "Hg

Humidity: 90%

Dew Point: 34 °F

Location of CampbelltownLocation

Past Weather in Campbelltown — Graph

°F

Campbelltown Temperature Yesterday

Maximum temperature yesterday: 65 °F (at 2:00 PM)
Minimum temperature yesterday: 34 °F (at 6:00 AM)
Average temperature yesterday: 50 °F

High & Low Weather Summary for the Past Weeks

 TemperatureHumidityPressure
High74 °F (Aug 17, 2:00 PM)100% (Aug 15, 8:00 AM)30.50 "Hg (Aug 15, 8:00 AM)
Low34 °F (Aug 27, 6:00 AM)28% (Aug 18, 3:00 PM)29.74 "Hg (Aug 24, 5:00 PM)
Average52 °F70%30.12 "Hg
* Reported Aug 13 3:00 AM — Aug 28 3:00 AM, Campbelltown, Weather by CustomWeather, © 2016

Note: Actual official high and low records may vary slightly from our data, if they occured in-between our weather recording intervals... More about our weather records

Advertising

Campbelltown Weather History for the Previous 24 Hours

Scroll right to see more
 ConditionsComfort  
Time TempWeatherWind HumidityBarometerVisibility
3:00 AM
Sun, Aug 28
36 °FChilly.3 mph90%30.16 "HgN/A
2:00 AM39 °FChilly.3 mph93%30.18 "HgN/A
12:00 AM40 °FChilly.No wind78%30.19 "HgN/A
11:00 PM
Sat, Aug 27
44 °FQuite cool.1 mph72%30.18 "HgN/A
9:00 PM47 °FCool.3 mph66%30.17 "HgN/A
8:00 PM51 °FCool.5 mph57%30.17 "HgN/A
6:00 PM56 °FRefreshingly cool.No wind60%30.12 "HgN/A
5:00 PM63 °FMild.5 mph42%30.12 "HgN/A
3:00 PM65 °FMild.7 mph32%30.12 "HgN/A
2:00 PM65 °FMild.6 mph30%30.14 "HgN/A
12:00 PM62 °FRefreshingly cool.5 mph32%30.19 "HgN/A
11:00 AM60 °FRefreshingly cool.6 mph40%30.22 "HgN/A
9:00 AM51 °FCool.2 mph64%30.23 "HgN/A
8:00 AM45 °FCool.6 mph84%30.22 "HgN/A
6:00 AM34 °FChilly.No wind97%30.21 "Hg1 mi
5:00 AM35 °FChilly.No wind97%30.19 "HgN/A
Weather by CustomWeather, © 2016

See weather overviewHow to use our weather pages